Date String (YYYY-MM-DD hh:mm:ss) UTC,Instrument flags,absolute air pressure of the measurement (hPa),sample flow rate (lpm),inlet stack bypass flow (lpm),air temperature of the measurement (°C),ambient temperature measured by the external sensor (°C),aerosol sample conditioner tube jacket temperature (°C),OPC LED temperature (°C),internal box temperature (°C),relative humidity of the measurement (%),span deviation,mass concentration of particles derived from Lorenz-Mie calculation of OPC scattering (μg/m³),mass concentration of particles derived from Lorenz-Mie calculation of OPC scattering (μg/m³),mass concentration of particles derived from Lorenz-Mie calculation of OPC scattering (μg/m³)
DateTimeUTC,F1_M11,P_M11,Q1_M11,Q2_M11,T1_M11,T2_M11,T3_M11,T4_M11,T5_M11,U1_M11,ZSPAN_M11,X2_M11,X0_M11,X1_M11
2024-06-02 18:00:00,SystemResetWarning,0823.6,5.00,000.00,028.9,026.0,000.0,037.7,029.8,024.0,0000.0,0004.45,0012.55,0003.63
2024-06-02 18:01:00,SystemResetWarning,0823.6,5.00,000.00,028.9,026.5,000.0,037.6,030.0,024.9,0000.0,0004.45,0012.96,0003.64
2024-06-02 18:02:00,SystemResetWarning,0823.6,5.01,000.00,028.9,026.9,000.0,037.5,030.2,024.7,0000.0,0004.43,0012.99,0003.65
2024-06-02 18:03:00,SystemResetWarning,0823.7,5.00,000.00,028.9,027.3,000.0,037.5,030.4,024.4,0000.0,0004.43,0013.17,0003.66
2024-06-02 18:04:00,SystemResetWarning,0823.7,5.00,000.00,029.0,027.7,000.0,037.4,030.6,024.6,0000.0,0004.43,0013.05,0003.69
2024-06-02 18:05:00,SystemResetWarning,0823.7,4.99,000.00,029.0,028.0,000.0,037.4,030.7,024.3,0000.0,0004.44,0013.23,0003.70
2024-06-02 18:06:00,SystemResetWarning,0823.6,5.00,000.00,029.1,028.2,000.0,037.4,030.9,024.1,0000.0,0004.45,0014.47,0003.72
2024-06-02 18:07:00,SystemResetWarning,0823.6,5.00,000.00,029.2,028.4,000.0,037.4,031.0,023.9,0000.0,0004.48,0014.15,0003.74
2024-06-02 18:08:00,SystemResetWarning,0823.6,5.01,000.00,029.3,028.6,000.0,037.4,031.0,024.5,0000.0,0004.50,0014.08,0003.75
2024-06-02 18:09:00,SystemResetWarning,0823.6,5.00,000.00,029.3,028.8,000.0,037.5,031.1,023.9,0000.0,0004.59,0014.52,0003.78
2024-06-02 18:10:00,SystemResetWarning,0823.7,5.00,000.00,029.4,028.9,000.0,037.5,031.2,024.4,0000.0,0004.63,0014.24,0003.80
2024-06-02 18:11:00,SystemResetWarning,0823.7,5.00,000.00,029.5,029.0,000.0,037.5,031.3,023.5,0000.0,0004.62,0014.83,0003.81
2024-06-02 18:12:00,SystemResetWarning,0823.7,4.99,000.00,029.5,029.1,000.0,037.6,031.4,023.1,0000.0,0004.61,0014.10,0003.81
2024-06-02 18:13:00,SystemResetWarning,0823.7,5.00,000.00,029.6,029.1,000.0,037.6,031.3,023.2,0000.0,0004.64,0014.73,0003.82
2024-06-02 18:14:00,SystemResetWarning,0823.6,4.98,000.00,029.4,027.3,000.0,037.7,030.5,024.3,0000.0,0004.66,0015.35,0003.83
2024-06-02 18:15:00,SystemResetWarning,0823.5,5.02,000.00,029.0,025.6,000.0,037.7,029.6,024.5,0000.0,0004.69,0015.88,0003.83
2024-06-02 18:16:00,SystemResetWarning,0823.5,5.00,000.00,028.8,025.9,000.0,037.7,029.7,024.7,0000.0,0004.70,0015.77,0003.84
2024-06-02 18:17:00,SystemResetWarning,0823.5,4.99,000.00,028.8,026.4,000.0,037.5,030.0,025.1,0000.0,0004.74,0015.65,0003.86
2024-06-02 18:18:00,SystemResetWarning,0823.4,5.00,000.00,028.8,026.9,000.0,037.5,030.2,025.1,0000.0,0004.72,0015.67,0003.86
2024-06-02 18:19:00,SystemResetWarning,0823.4,5.00,000.00,028.9,027.3,000.0,037.4,030.4,025.5,0000.0,0004.71,0015.50,0003.86
2024-06-02 18:20:00,SystemResetWarning,0823.4,5.00,000.00,028.9,027.6,000.0,037.4,030.6,024.6,0000.0,0004.65,0015.32,0003.85
2024-06-02 18:21:00,SystemResetWarning,0823.4,5.00,000.00,029.0,027.9,000.0,037.4,030.7,025.3,0000.0,0004.62,0014.84,0003.84
2024-06-02 18:22:00,SystemResetWarning,0823.4,5.00,000.00,029.1,028.2,000.0,037.4,030.8,026.1,0000.0,0004.62,0014.40,0003.84
2024-06-02 18:23:00,SystemResetWarning,0823.4,5.00,000.00,029.1,028.4,000.0,037.4,030.9,026.4,0000.0,0004.63,0016.00,0003.83
2024-06-02 18:24:00,SystemResetWarning,0823.4,4.99,000.00,029.2,028.6,000.0,037.4,031.0,026.4,0000.0,0004.60,0015.11,0003.83
2024-06-02 18:25:00,SystemResetWarning,0823.4,5.00,000.00,029.3,028.7,000.0,037.4,031.1,024.8,0000.0,0004.61,0014.67,0003.82
2024-06-02 18:26:00,SystemResetWarning,0823.4,5.00,000.00,029.4,028.9,000.0,037.5,031.2,024.4,0000.0,0004.60,0013.91,0003.81
2024-06-02 18:27:00,SystemResetWarning,0823.4,5.00,000.00,029.4,029.0,000.0,037.5,031.3,023.8,0000.0,0004.61,0014.11,0003.80
2024-06-02 18:28:00,SystemResetWarning,0823.4,5.00,000.00,029.5,029.1,000.0,037.5,031.3,023.8,0000.0,0004.58,0013.56,0003.79
2024-06-02 18:29:00,SystemResetWarning,0823.4,4.99,000.00,029.5,028.4,000.0,037.6,031.0,024.0,0000.0,0004.51,0011.97,0003.77
2024-06-02 18:30:00,SystemResetWarning,0823.4,5.00,000.00,029.2,026.2,000.0,037.7,029.9,025.4,0000.0,0004.54,0012.44,0003.76
2024-06-02 18:31:00,SystemResetWarning,0823.4,5.00,000.00,028.8,025.6,000.0,037.7,029.5,026.8,0000.0,0004.55,0012.19,0003.75
2024-06-02 18:32:00,SystemResetWarning,0823.4,5.01,000.00,028.7,026.1,000.0,037.6,029.7,027.0,0000.0,0004.55,0011.57,0003.75
2024-06-02 18:33:00,SystemResetWarning,0823.5,5.00,000.00,028.7,026.6,000.0,037.4,030.0,026.5,0000.0,0004.54,0011.39,0003.76
2024-06-02 18:34:00,SystemResetWarning,0823.4,5.00,000.00,028.8,027.0,000.0,037.4,030.3,025.1,0000.0,0004.53,0011.31,0003.77
2024-06-02 18:35:00,SystemResetWarning,0823.3,5.00,000.00,028.8,027.4,000.0,037.3,030.4,024.8,0000.0,0004.54,0011.53,0003.77
2024-06-02 18:36:00,SystemResetWarning,0823.3,5.00,000.00,028.9,027.7,000.0,037.3,030.6,025.5,0000.0,0004.52,0011.84,0003.78
2024-06-02 18:37:00,SystemResetWarning,0823.2,5.00,000.00,029.0,028.0,000.0,037.3,030.7,024.8,0000.0,0004.57,0011.96,0003.79
2024-06-02 18:38:00,SystemResetWarning,0823.3,5.00,000.00,029.0,028.2,000.0,037.3,030.8,025.3,0000.0,0004.58,0011.78,0003.79
2024-06-02 18:39:00,SystemResetWarning,0823.3,5.01,000.00,029.1,028.4,000.0,037.3,030.9,024.1,0000.0,0004.61,0011.95,0003.79
2024-06-02 18:40:00,SystemResetWarning,0823.3,5.00,000.00,029.2,028.6,000.0,037.4,031.0,024.3,0000.0,0004.62,0012.29,0003.79
2024-06-02 18:41:00,SystemResetWarning,0823.3,5.00,000.00,029.3,028.7,000.0,037.4,031.1,024.6,0000.0,0004.61,0011.91,0003.78
2024-06-02 18:42:00,SystemResetWarning,0823.3,5.00,000.00,029.3,028.9,000.0,037.4,031.2,024.3,0000.0,0004.62,0012.43,0003.79
2024-06-02 18:43:00,SystemResetWarning,0823.2,4.99,000.00,029.4,029.0,000.0,037.5,031.2,023.9,0000.0,0004.66,0012.74,0003.79
2024-06-02 18:44:00,SystemResetWarning,0823.3,4.99,000.00,029.5,029.1,000.0,037.5,031.3,024.4,0000.0,0004.64,0013.82,0003.78
2024-06-02 18:45:00,SystemResetWarning,0823.3,5.00,000.00,029.5,029.0,000.0,037.5,031.3,023.6,0000.0,0004.67,0013.16,0003.78
2024-06-02 18:46:00,SystemResetWarning,0823.1,5.00,000.00,029.4,027.3,000.0,037.6,030.5,023.9,0000.0,0004.70,0013.49,0003.76
2024-06-02 18:47:00,SystemResetWarning,0823.1,5.00,000.00,029.0,025.6,000.0,037.7,029.6,024.7,0000.0,0004.72,0013.81,0003.75
2024-06-02 18:48:00,SystemResetWarning,0823.1,5.01,000.00,028.7,025.8,000.0,037.6,029.6,025.4,0000.0,0004.67,0014.04,0003.73
2024-06-02 18:49:00,SystemResetWarning,0823.1,5.01,000.00,028.7,026.3,000.0,037.5,029.9,024.9,0000.0,0004.66,0014.00,0003.72
2024-06-02 18:50:00,SystemResetWarning,0823.2,4.98,000.00,028.7,026.7,000.0,037.4,030.1,024.5,0000.0,0004.63,0014.01,0003.72
2024-06-02 18:51:00,SystemResetWarning,0823.1,4.99,000.00,028.8,027.2,000.0,037.3,030.3,026.9,0000.0,0004.60,0014.86,0003.71
2024-06-02 18:52:00,SystemResetWarning,0823.1,5.01,000.00,028.9,027.5,000.0,037.3,030.5,025.8,0000.0,0004.60,0015.44,0003.70
2024-06-02 18:53:00,SystemResetWarning,0823.2,5.00,000.00,028.9,027.8,000.0,037.3,030.6,025.8,0000.0,0004.57,0015.32,0003.70
2024-06-02 18:54:00,SystemResetWarning,0823.2,5.01,000.00,029.0,028.1,000.0,037.3,030.8,025.7,0000.0,0004.54,0016.05,0003.69
2024-06-02 18:55:00,SystemResetWarning,0823.3,5.00,000.00,029.1,028.3,000.0,037.3,030.9,025.3,0000.0,0004.59,0015.87,0003.68
2024-06-02 18:56:00,SystemResetWarning,0823.3,4.99,000.00,029.1,028.5,000.0,037.3,031.0,025.1,0000.0,0004.59,0015.85,0003.68
2024-06-02 18:57:00,SystemResetWarning,0823.2,5.00,000.00,029.2,028.7,000.0,037.3,031.1,024.4,0000.0,0004.53,0014.31,0003.67
2024-06-02 18:58:00,SystemResetWarning,0823.1,5.00,000.00,029.3,028.8,000.0,037.4,031.2,023.9,0000.0,0004.54,0015.29,0003.67
2024-06-02 18:59:00,SystemResetWarning,0823.1,5.00,000.00,029.4,028.9,000.0,037.4,031.2,023.7,0000.0,0004.54,0015.44,0003.67
